UAL2367 KSFO-KSBA

Flight info

Callsign UAL2367
Flight time 0h 46m
Altitude 29000
Route WESLA5 YYUNG GVO HABUT
Aircraft A321/M-SDE3FGHIRWY/LB1

Departure

Time 2026-05-04 18:06
Airport San Francisco International Airport (KSFO)

Arrival

Time 2026-05-04 18:53
Airport Santa Barbara Municipal Airport (KSBA)
Time Latitude Longitude Altitude Speed Heading
2026-05-04 17:46 37.61960 -122.38343 21 ft 0 kts 261°
2026-05-04 17:59 37.61962 -122.38327 22 ft 4 kts 245°
2026-05-04 17:59 37.61972 -122.38303 24 ft 0 kts 247°
2026-05-04 18:01 37.61974 -122.38307 23 ft 2 kts 282°
2026-05-04 18:02 37.61973 -122.38221 24 ft 10 kts 117°
2026-05-04 18:02 37.61931 -122.38121 21 ft 16 kts 118°
2026-05-04 18:02 37.61870 -122.37975 22 ft 21 kts 117°
2026-05-04 18:02 37.61808 -122.37799 18 ft 22 kts 104°
2026-05-04 18:03 37.61753 -122.37616 20 ft 22 kts 110°
2026-05-04 18:03 37.61689 -122.37440 20 ft 22 kts 118°
2026-05-04 18:03 37.61620 -122.37272 23 ft 21 kts 117°
2026-05-04 18:03 37.61548 -122.37101 22 ft 24 kts 118°
2026-05-04 18:04 37.61453 -122.36912 21 ft 26 kts 130°
2026-05-04 18:04 37.61340 -122.36719 18 ft 28 kts 120°
2026-05-04 18:04 37.61153 -122.36275 17 ft 28 kts 117°
2026-05-04 18:05 37.61062 -122.36057 20 ft 24 kts 115°
2026-05-04 18:05 37.61113 -122.35894 18 ft 19 kts 25°
2026-05-04 18:05 37.61219 -122.35956 17 ft 19 kts 299°
2026-05-04 18:05 37.61326 -122.36210 14 ft 61 kts 297°
2026-05-04 18:06 37.62117 -122.38103 43 ft 170 kts 296°
2026-05-04 18:06 37.62673 -122.39428 630 ft 174 kts 297°
2026-05-04 18:06 37.63260 -122.40810 1285 ft 181 kts 296°
2026-05-04 18:07 37.63848 -122.42204 2038 ft 178 kts 295°
2026-05-04 18:07 37.64459 -122.43661 2307 ft 198 kts 298°
2026-05-04 18:07 37.65159 -122.45266 2542 ft 219 kts 299°
2026-05-04 18:07 37.65958 -122.46994 2724 ft 243 kts 298°
2026-05-04 18:08 37.66741 -122.48854 3539 ft 242 kts 291°
2026-05-04 18:08 37.66888 -122.51016 3921 ft 256 kts 255°
2026-05-04 18:08 37.65980 -122.52926 4583 ft 259 kts 219°
2026-05-04 18:08 37.64332 -122.53815 5303 ft 262 kts 185°
2026-05-04 18:09 37.60814 -122.52504 6674 ft 268 kts 154°
2026-05-04 18:09 37.57400 -122.50481 7966 ft 274 kts 154°
2026-05-04 18:10 37.55651 -122.49476 8583 ft 279 kts 158°
2026-05-04 18:10 37.53790 -122.48709 9182 ft 284 kts 164°
2026-05-04 18:10 37.51880 -122.48112 9779 ft 288 kts 166°
2026-05-04 18:10 37.49896 -122.47593 10278 ft 297 kts 170°
2026-05-04 18:11 37.47754 -122.47580 10404 ft 319 kts 186°
2026-05-04 18:11 37.45495 -122.48091 10533 ft 340 kts 189°
2026-05-04 18:11 37.43096 -122.48609 10670 ft 359 kts 188°
2026-05-04 18:11 37.40593 -122.49092 11064 ft 367 kts 187°
2026-05-04 18:12 37.38052 -122.49550 11617 ft 370 kts 187°
2026-05-04 18:12 37.35489 -122.50003 12180 ft 374 kts 187°
2026-05-04 18:12 37.32903 -122.50461 12777 ft 376 kts 187°
2026-05-04 18:12 37.30292 -122.50930 13333 ft 380 kts 187°
2026-05-04 18:13 37.27664 -122.51410 13877 ft 383 kts 187°
2026-05-04 18:13 37.25014 -122.51899 14348 ft 386 kts 187°
2026-05-04 18:13 37.19689 -122.52892 15306 ft 392 kts 187°
2026-05-04 18:14 37.16987 -122.53396 15809 ft 394 kts 187°
2026-05-04 18:14 37.14265 -122.53901 16299 ft 397 kts 187°
2026-05-04 18:14 37.11509 -122.54408 16765 ft 400 kts 187°
2026-05-04 18:15 37.05952 -122.55427 17648 ft 406 kts 186°
2026-05-04 18:15 37.00327 -122.55142 18479 ft 406 kts 165°
2026-05-04 18:15 36.97644 -122.54047 18865 ft 406 kts 154°
2026-05-04 18:16 36.95153 -122.52389 19241 ft 406 kts 147°
2026-05-04 18:16 36.92748 -122.50600 19625 ft 408 kts 147°
2026-05-04 18:16 36.90271 -122.48773 20016 ft 410 kts 147°
2026-05-04 18:17 36.85351 -122.45173 20804 ft 414 kts 147°
2026-05-04 18:17 36.82853 -122.43351 21193 ft 416 kts 147°
2026-05-04 18:17 36.77821 -122.39677 21908 ft 422 kts 147°
2026-05-04 18:18 36.75282 -122.37815 22274 ft 424 kts 147°
2026-05-04 18:18 36.72724 -122.35940 22643 ft 427 kts 147°
2026-05-04 18:18 36.70156 -122.34057 23011 ft 429 kts 146°
2026-05-04 18:18 36.67580 -122.32174 23382 ft 431 kts 146°
2026-05-04 18:19 36.62410 -122.28408 24002 ft 436 kts 148°
2026-05-04 18:19 36.59778 -122.26494 24265 ft 439 kts 148°
2026-05-04 18:19 36.57134 -122.24571 24549 ft 441 kts 148°
2026-05-04 18:20 36.54476 -122.22637 24842 ft 443 kts 148°
2026-05-04 18:20 36.51809 -122.20695 25127 ft 445 kts 148°
2026-05-04 18:20 36.49136 -122.18748 25411 ft 447 kts 149°
2026-05-04 18:20 36.46444 -122.16790 25696 ft 449 kts 150°
2026-05-04 18:21 36.43739 -122.14830 25960 ft 451 kts 151°
2026-05-04 18:21 36.41021 -122.12863 26233 ft 453 kts 151°
2026-05-04 18:21 36.38291 -122.10889 26504 ft 455 kts 151°
2026-05-04 18:21 36.35543 -122.08901 26763 ft 457 kts 151°
2026-05-04 18:22 36.32795 -122.06914 27022 ft 459 kts 152°
2026-05-04 18:22 36.30066 -122.04944 27273 ft 460 kts 152°
2026-05-04 18:22 36.27293 -122.02945 27508 ft 462 kts 153°
2026-05-04 18:22 36.24508 -122.00942 27737 ft 463 kts 153°
2026-05-04 18:23 36.21711 -121.98931 27959 ft 465 kts 153°
2026-05-04 18:23 36.18907 -121.96914 28168 ft 466 kts 153°
2026-05-04 18:23 36.16100 -121.94893 28366 ft 468 kts 153°
2026-05-04 18:23 36.13285 -121.92864 28582 ft 468 kts 153°
2026-05-04 18:24 36.10475 -121.90838 28861 ft 468 kts 153°
2026-05-04 18:24 36.07658 -121.88812 29068 ft 468 kts 154°
2026-05-04 18:24 36.02152 -121.84793 29103 ft 456 kts 149°
2026-05-04 18:25 35.97511 -121.79393 29085 ft 465 kts 131°
2026-05-04 18:25 35.93583 -121.73086 29102 ft 468 kts 133°
2026-05-04 18:26 35.89586 -121.66724 29103 ft 468 kts 134°
2026-05-04 18:26 35.85582 -121.60374 29109 ft 469 kts 134°
2026-05-04 18:27 35.81574 -121.54023 29109 ft 469 kts 134°
2026-05-04 18:27 35.77560 -121.47678 29089 ft 469 kts 135°
2026-05-04 18:28 35.73566 -121.41363 29092 ft 470 kts 135°
2026-05-04 18:28 35.69549 -121.35016 29098 ft 470 kts 135°
2026-05-04 18:29 35.65518 -121.28668 29083 ft 470 kts 137°
2026-05-04 18:29 35.61472 -121.22329 29074 ft 470 kts 137°
2026-05-04 18:30 35.55437 -121.12879 29087 ft 471 kts 137°
2026-05-04 18:31 35.51176 -121.06695 29079 ft 471 kts 147°
2026-05-04 18:31 35.46065 -121.01828 29098 ft 463 kts 154°
2026-05-04 18:32 35.40884 -120.97117 29104 ft 463 kts 154°
2026-05-04 18:32 35.35742 -120.92446 28678 ft 462 kts 154°
2026-05-04 18:32 35.33144 -120.90083 26824 ft 459 kts 152°
2026-05-04 18:33 35.30601 -120.87783 25153 ft 459 kts 150°
2026-05-04 18:33 35.28042 -120.85471 23732 ft 453 kts 148°
2026-05-04 18:33 35.25518 -120.83190 22130 ft 446 kts 148°
2026-05-04 18:33 35.23043 -120.80953 20730 ft 436 kts 147°
2026-05-04 18:34 35.20675 -120.78813 20269 ft 406 kts 147°
2026-05-04 18:34 35.18487 -120.76824 19917 ft 380 kts 147°
2026-05-04 18:34 35.16367 -120.74904 19442 ft 382 kts 147°
2026-05-04 18:34 35.14219 -120.72974 18991 ft 383 kts 147°
2026-05-04 18:35 35.12076 -120.71056 18531 ft 381 kts 147°
2026-05-04 18:35 35.09939 -120.69145 18040 ft 379 kts 147°
2026-05-04 18:35 35.07842 -120.67266 17573 ft 377 kts 147°
2026-05-04 18:35 35.05743 -120.65381 17114 ft 374 kts 146°
2026-05-04 18:36 35.03651 -120.63499 16635 ft 371 kts 146°
2026-05-04 18:36 35.01578 -120.61635 16166 ft 368 kts 146°
2026-05-04 18:36 34.99520 -120.59789 15681 ft 365 kts 146°
2026-05-04 18:36 34.97477 -120.57959 15198 ft 366 kts 146°
2026-05-04 18:37 34.95427 -120.56126 14633 ft 364 kts 146°
2026-05-04 18:37 34.93398 -120.54314 14137 ft 360 kts 146°
2026-05-04 18:37 34.91387 -120.52516 13607 ft 356 kts 146°
2026-05-04 18:37 34.89397 -120.50736 13097 ft 352 kts 146°
2026-05-04 18:38 34.88097 -120.49574 12769 ft 349 kts 146°
2026-05-04 18:38 34.86148 -120.47832 12271 ft 344 kts 146°
2026-05-04 18:38 34.84226 -120.46115 11774 ft 341 kts 146°
2026-05-04 18:38 34.82324 -120.44418 11301 ft 337 kts 146°
2026-05-04 18:39 34.80444 -120.42740 10857 ft 332 kts 146°
2026-05-04 18:39 34.78628 -120.41120 10728 ft 317 kts 146°
2026-05-04 18:39 34.76880 -120.39559 10606 ft 304 kts 146°
2026-05-04 18:39 34.75206 -120.38067 10436 ft 293 kts 146°
2026-05-04 18:40 34.73581 -120.36622 10117 ft 288 kts 147°
2026-05-04 18:40 34.71974 -120.35197 9903 ft 282 kts 147°
2026-05-04 18:40 34.70404 -120.33805 9771 ft 283 kts 147°
2026-05-04 18:40 34.68818 -120.32399 9637 ft 282 kts 146°
2026-05-04 18:41 34.67230 -120.30991 9501 ft 282 kts 146°
2026-05-04 18:41 34.65643 -120.29581 9277 ft 282 kts 146°
2026-05-04 18:41 34.64065 -120.28180 8913 ft 279 kts 146°
2026-05-04 18:41 34.62499 -120.26789 8545 ft 278 kts 146°
2026-05-04 18:42 34.60959 -120.25424 8180 ft 277 kts 146°
2026-05-04 18:42 34.59405 -120.24047 7816 ft 276 kts 146°
2026-05-04 18:42 34.57833 -120.22656 7440 ft 276 kts 146°
2026-05-04 18:42 34.56283 -120.21286 7080 ft 275 kts 146°
2026-05-04 18:43 34.54759 -120.19941 6980 ft 275 kts 146°
2026-05-04 18:43 34.53201 -120.18567 6994 ft 277 kts 146°
2026-05-04 18:43 34.51646 -120.17193 6994 ft 277 kts 146°
2026-05-04 18:43 34.50095 -120.15821 6692 ft 275 kts 146°
2026-05-04 18:44 34.48576 -120.14478 6528 ft 265 kts 146°
2026-05-04 18:44 34.47604 -120.13619 6442 ft 258 kts 146°
2026-05-04 18:44 34.45699 -120.11940 6175 ft 248 kts 146°
2026-05-04 18:44 34.44308 -120.10717 5799 ft 247 kts 146°
2026-05-04 18:45 34.42910 -120.09486 5411 ft 248 kts 146°
2026-05-04 18:45 34.41457 -120.08373 5042 ft 246 kts 161°
2026-05-04 18:45 34.39809 -120.08079 4712 ft 238 kts 189°
2026-05-04 18:45 34.38315 -120.08690 4540 ft 223 kts 216°
2026-05-04 18:46 34.37225 -120.09933 4251 ft 213 kts 239°
2026-05-04 18:46 34.36666 -120.11559 3886 ft 209 kts 262°
2026-05-04 18:46 34.36698 -120.13299 3486 ft 209 kts 285°
2026-05-04 18:46 34.37304 -120.14880 3094 ft 208 kts 307°
2026-05-04 18:47 34.38345 -120.16082 2898 ft 208 kts 321°
2026-05-04 18:47 34.39593 -120.16968 2886 ft 211 kts 340°
2026-05-04 18:47 34.41051 -120.17216 2899 ft 214 kts
2026-05-04 18:47 34.42486 -120.16728 2886 ft 217 kts 28°
2026-05-04 18:48 34.43626 -120.15561 2882 ft 220 kts 52°
2026-05-04 18:48 34.44272 -120.13889 2885 ft 223 kts 77°
2026-05-04 18:48 34.44272 -120.12014 2888 ft 224 kts 103°
2026-05-04 18:48 34.43610 -120.10308 2882 ft 227 kts 130°
2026-05-04 18:49 34.42459 -120.09015 2887 ft 227 kts 140°
2026-05-04 18:49 34.41617 -120.07437 2886 ft 228 kts 102°
2026-05-04 18:49 34.41557 -120.05529 2887 ft 225 kts 84°
2026-05-04 18:49 34.41760 -120.03632 2886 ft 227 kts 81°
2026-05-04 18:50 34.41989 -120.01747 2609 ft 230 kts 81°
2026-05-04 18:50 34.42179 -119.99836 2313 ft 228 kts 83°
2026-05-04 18:50 34.42322 -119.97949 2005 ft 223 kts 86°
2026-05-04 18:50 34.42422 -119.96151 1750 ft 204 kts 89°
2026-05-04 18:51 34.42492 -119.94511 1484 ft 188 kts 90°
2026-05-04 18:51 34.42546 -119.92990 1256 ft 175 kts 88°
2026-05-04 18:51 34.42590 -119.91561 1009 ft 163 kts 89°
2026-05-04 18:51 34.42627 -119.90194 787 ft 159 kts 89°
2026-05-04 18:52 34.42662 -119.88835 584 ft 165 kts 91°
2026-05-04 18:52 34.42695 -119.87450 375 ft 163 kts 88°
2026-05-04 18:52 34.42735 -119.86074 171 ft 166 kts 89°
2026-05-04 18:52 34.42767 -119.84694 19 ft 152 kts 89°
2026-05-04 18:53 34.42783 -119.83831 23 ft 47 kts 88°
2026-05-04 18:53 34.42790 -119.83534 19 ft 21 kts 91°
2026-05-04 18:53 34.42694 -119.83468 20 ft 11 kts 206°
2026-05-04 18:53 34.42681 -119.83521 20 ft 6 kts 267°
2026-05-04 18:54 34.42679 -119.83576 21 ft 7 kts 267°
2026-05-04 18:54 34.42677 -119.83635 21 ft 7 kts 267°
2026-05-04 18:54 34.42674 -119.83711 22 ft 13 kts 268°
2026-05-04 18:54 34.42651 -119.83819 24 ft 14 kts 216°
2026-05-04 18:55 34.42555 -119.83802 23 ft 15 kts 165°
2026-05-04 18:55 34.42439 -119.83730 23 ft 7 kts 106°
2026-05-04 18:55 34.42430 -119.83698 22 ft 0 kts 108°